This demonstration page uses our WeatherBlox Daily Observations layout. Learn more.

Left ArrowRight Arrow

39.01783, -85.05884

Hourly Observations for December 1, 2016

Temp ( °F °C ) Dew Point ( °F °C ) Humidity (%) Winds ( mph kmh ) Pressure ( in mb ) Visibility ( mi km ) Precip ( " mm )
12:52 am 00:52 Cloudy 41 5 32 undefined 70 70 WSW 6 9 29.78 1009 10 16 N/A
1:52 am 01:52 Cloudy 41 5 32 undefined 70 70 WSW 6 9 29.80 1009 10 16 N/A
2:52 am 02:52 Cloudy 40 4.4 31 -0.6 70 70 W 13 20 29.83 1010 10 16 N/A
3:52 am 03:52 Cloudy 40 4.4 31 -0.6 70 70 WSW 10 17 29.83 1010 10 16 N/A
4:52 am 04:52 Cloudy 39 3.9 30 -1.1 70 70 W 10 17 29.84 1011 10 16 N/A
5:52 am 05:52 Cloudy 39 3.9 29 -1.7 67 67 W 12 19 29.85 1011 10 16 N/A
6:52 am 06:52 Cloudy 39 3.9 28 -2.2 65 65 WSW 14 22 29.87 1012 10 16 N/A
7:52 am 07:52 Cloudy 39 3.9 28 -2.2 65 65 WSW 8 13 29.89 1012 10 16 N/A
8:52 am 08:52 Cloudy 39 3.9 28 -2.2 65 65 WSW 9 15 29.91 1013 10 16 N/A
9:52 am 09:52 Cloudy 40 4.4 29 -1.7 65 65 WSW 13 20 29.93 1013 10 16 N/A
10:52 am 10:52 Cloudy 40 4.4 28 -2.2 63 63 WSW 12 19 29.95 1014 10 16 N/A
11:52 am 11:52 Cloudy 42 5.6 27 -2.8 55 55 WSW 13 20 29.94 1014 10 16 N/A
12:52 pm 12:52 Cloudy 43 6.1 27 -2.8 53 53 WSW 13 20 29.94 1014 10 16 N/A
1:52 pm 13:52 Mostly Cloudy 44 6.7 28 -2.2 53 53 W 15 24 29.93 1014 10 16 N/A
2:52 pm 14:52 Cloudy 44 6.7 28 -2.2 53 53 W 16 26 29.95 1014 10 16 N/A
3:52 pm 15:52 Partly Cloudy 44 6.7 28 -2.2 53 53 W 15 24 29.96 1015 10 16 N/A
4:52 pm 16:52 Mostly Sunny 42 5.6 28 -2.2 58 58 W 10 17 29.98 1015 10 16 N/A
5:52 pm 17:52 Mostly Clear 37 2.8 28 -2.2 70 70 W 7 11 30.00 1016 10 16 N/A
6:52 pm 18:52 Clear 37 2.8 28 -2.2 70 70 NW 8 13 30.01 1016 10 16 N/A
7:52 pm 19:52 Clear 35 1.7 27 -2.8 72 72 WNW 7 11 30.03 1017 10 16 N/A
8:52 pm 20:52 Clear 33 0.6 27 -2.8 78 78 W 6 9 30.04 1017 10 16 N/A
9:52 pm 21:52 Mostly Clear 32 undefined 27 -2.8 82 82 W 6 9 30.06 1018 10 16 N/A
10:52 pm 22:52 Cloudy 34 1.1 28 -2.2 79 79 W 6 9 30.07 1018 10 16 N/A
11:52 pm 23:52 Mostly Cloudy 35 1.7 28 -2.2 76 76 VRB 3 6 30.06 1018 10 16 N/A

Powered by AerisWeather